{"data":{"norad_id":48432,"intl_designator":"2021-040E","name":"STARLINK-2680","alt_names":[],"object_type":"PAYLOAD","status":"ACTIVE","operator":null,"country":"US","launch_date":"2021-05-09","launch_site_code":"AFETR","launch_vehicle":null,"mission":null,"orbit_class":"UNKNOWN","rcs_meters":null,"size_class":null,"mass_kg":null,"dimensions":null,"purposes":["comms"],"wikipedia_slug":null,"has_3d_model":false,"image_url":null,"decayed_at":null,"tle_current":{"epoch":"2026-09-20T04:41:58.566336Z","epoch_age_seconds":59912,"freshness":"FRESH","line1":"1 48432U 21040E   26263.19581674  .00000439  00000+0  25920-4 0  9995","line2":"2 48432  53.1603 327.7089 0001139  89.8928 270.2204 15.31701828296825","mean_motion":15.31701828,"eccentricity":0.0001139,"inclination_deg":53.1603,"raan_deg":327.7089,"arg_perigee_deg":89.8928,"mean_anomaly_deg":270.2204,"bstar":2.592e-5,"rev_number":29682,"period_min":94.013075761636,"perigee_km":469.95445958909,"apogee_km":471.51463252728,"semimajor_km":6848.8715460582,"source":"CELESTRAK","updated_at":"2026-09-20T09:00:39.123338Z"}}}